Date String (YYYY-MM-DD hh:mm:ss) UTC,Instrument flags,absolute air pressure of the measurement (hPa),sample flow rate (lpm),inlet stack bypass flow (lpm),air temperature of the measurement (°C),ambient temperature measured by the external sensor (°C),aerosol sample conditioner tube jacket temperature (°C),OPC LED temperature (°C),internal box temperature (°C),relative humidity of the measurement (%),span deviation,mass concentration of particles derived from Lorenz-Mie calculation of OPC scattering (μg/m³),mass concentration of particles derived from Lorenz-Mie calculation of OPC scattering (μg/m³),mass concentration of particles derived from Lorenz-Mie calculation of OPC scattering (μg/m³)
DateTimeUTC,F1_M11,P_M11,Q1_M11,Q2_M11,T1_M11,T2_M11,T3_M11,T4_M11,T5_M11,U1_M11,ZSPAN_M11,X0_M11,X2_M11,X1_M11
2023-11-13 15:00:00,SystemResetWarning,0836.2,5.01,000.00,023.3,022.5,000.0,031.6,024.8,9.8,0000.0,0010.50,0004.60,0003.65
2023-11-13 15:01:00,SystemResetWarning,0836.2,5.01,000.00,023.3,022.5,000.0,031.6,024.8,9.9,0000.0,0010.89,0004.59,0003.65
2023-11-13 15:02:00,SystemResetWarning,0836.2,5.00,000.00,023.3,022.5,000.0,031.6,024.8,9.9,0000.0,0011.10,0004.60,0003.65
2023-11-13 15:03:00,SystemResetWarning,0836.2,4.99,000.00,023.3,022.5,000.0,031.6,024.8,9.9,0000.0,0011.53,0004.60,0003.65
2023-11-13 15:04:00,SystemResetWarning,0836.2,5.00,000.00,023.3,022.5,000.0,031.6,024.9,10.0,0000.0,0011.83,0004.62,0003.65
2023-11-13 15:05:00,SystemResetWarning,0836.2,4.99,000.00,023.3,022.5,000.0,031.6,024.9,9.9,0000.0,0012.02,0004.61,0003.65
2023-11-13 15:06:00,SystemResetWarning,0836.2,5.00,000.00,023.3,022.5,000.0,031.6,024.9,10.0,0000.0,0011.80,0004.59,0003.65
2023-11-13 15:07:00,SystemResetWarning,0836.2,5.01,000.00,023.4,022.6,000.0,031.6,024.9,10.0,0000.0,0011.38,0004.63,0003.64
2023-11-13 15:08:00,SystemResetWarning,0836.2,5.00,000.00,023.4,022.6,000.0,031.6,024.9,9.9,0000.0,0011.48,0004.63,0003.64
2023-11-13 15:09:00,SystemResetWarning,0836.2,5.00,000.00,023.4,022.6,000.0,031.6,024.9,9.7,0000.0,0011.24,0004.64,0003.64
2023-11-13 15:10:00,SystemResetWarning,0836.2,5.01,000.00,023.4,022.6,000.0,031.6,024.9,9.7,0000.0,0011.34,0004.67,0003.62
2023-11-13 15:11:00,SystemResetWarning,0836.2,5.00,000.00,023.4,022.6,000.0,031.7,024.9,9.8,0000.0,0011.44,0004.70,0003.63
2023-11-13 15:12:00,SystemResetWarning,0836.1,4.99,000.00,023.4,022.6,000.0,031.7,024.9,9.8,0000.0,0011.54,0004.70,0003.63
2023-11-13 15:13:00,SystemResetWarning,0836.2,4.99,000.00,023.4,022.7,000.0,031.7,024.9,9.8,0000.0,0012.04,0004.74,0003.65
2023-11-13 15:14:00,SystemResetWarning,0836.2,4.99,000.00,023.4,022.7,000.0,031.7,024.9,9.7,0000.0,0012.24,0004.75,0003.65
2023-11-13 15:15:00,SystemResetWarning,0836.2,5.00,000.00,023.5,022.7,000.0,031.7,024.9,9.7,0000.0,0012.05,0004.73,0003.64
2023-11-13 15:16:00,SystemResetWarning,0836.2,5.01,000.00,023.5,022.7,000.0,031.7,025.0,10.1,0000.0,0012.18,0004.77,0003.64
2023-11-13 15:17:00,SystemResetWarning,0836.1,5.01,000.00,023.5,022.7,000.0,031.7,025.0,10.0,0000.0,0011.94,0004.72,0003.63
2023-11-13 15:18:00,SystemResetWarning,0836.1,5.00,000.00,023.5,022.7,000.0,031.7,025.0,9.8,0000.0,0011.48,0004.63,0003.61
2023-11-13 15:19:00,SystemResetWarning,0836.1,5.00,000.00,023.5,022.8,000.0,031.7,025.0,9.7,0000.0,0012.50,0004.55,0003.58
2023-11-13 15:20:00,SystemResetWarning,0836.1,5.00,000.00,023.5,022.8,000.0,031.7,025.0,9.8,0000.0,0013.05,0004.54,0003.56
2023-11-13 15:21:00,SystemResetWarning,0836.2,4.99,000.00,023.5,022.8,000.0,031.8,025.0,9.8,0000.0,0012.63,0004.47,0003.55
2023-11-13 15:22:00,SystemResetWarning,0836.2,5.00,000.00,023.6,022.8,000.0,031.8,025.1,9.7,0000.0,0012.46,0004.41,0003.54
2023-11-13 15:23:00,SystemResetWarning,0836.2,5.00,000.00,023.6,022.8,000.0,031.8,025.1,9.7,0000.0,0012.10,0004.39,0003.54
2023-11-13 15:24:00,SystemResetWarning,0836.2,5.00,000.00,023.6,022.8,000.0,031.8,025.1,9.8,0000.0,0011.30,0004.32,0003.52
2023-11-13 15:25:00,SystemResetWarning,0836.2,5.00,000.00,023.6,022.9,000.0,031.8,025.1,9.8,0000.0,0010.75,0004.34,0003.51
2023-11-13 15:26:00,SystemResetWarning,0836.2,5.00,000.00,023.6,022.9,000.0,031.8,025.1,9.9,0000.0,0010.83,0004.40,0003.52
2023-11-13 15:27:00,SystemResetWarning,0836.2,5.00,000.00,023.6,022.9,000.0,031.8,025.1,10.0,0000.0,0010.56,0004.39,0003.52
2023-11-13 15:28:00,SystemResetWarning,0836.2,5.00,000.00,023.7,022.9,000.0,031.9,025.2,10.1,0000.0,0011.17,0004.41,0003.53
2023-11-13 15:29:00,SystemResetWarning,0836.2,5.00,000.00,023.7,022.9,000.0,031.9,025.1,10.1,0000.0,0011.25,0004.42,0003.54
2023-11-13 15:30:00,SystemResetWarning,0836.2,5.00,000.00,023.7,023.0,000.0,031.9,025.2,10.2,0000.0,0010.19,0004.42,0003.54
2023-11-13 15:31:00,SystemResetWarning,0836.2,5.00,000.00,023.7,023.0,000.0,031.9,025.2,10.2,0000.0,0009.72,0004.40,0003.55
2023-11-13 15:32:00,SystemResetWarning,0836.2,5.00,000.00,023.7,023.0,000.0,031.9,025.2,10.4,0000.0,0009.29,0004.36,0003.55
2023-11-13 15:33:00,SystemResetWarning,0836.2,5.00,000.00,023.7,023.0,000.0,031.9,025.2,10.3,0000.0,0009.24,0004.35,0003.54
2023-11-13 15:34:00,SystemResetWarning,0836.2,5.00,000.00,023.7,023.0,000.0,031.9,025.3,10.2,0000.0,0009.40,0004.34,0003.54
2023-11-13 15:35:00,SystemResetWarning,0836.2,5.00,000.00,023.8,023.1,000.0,031.9,025.3,10.2,0000.0,0009.72,0004.36,0003.54
2023-11-13 15:36:00,SystemResetWarning,0836.2,5.00,000.00,023.8,023.1,000.0,032.0,025.3,10.1,0000.0,0010.12,0004.35,0003.54
2023-11-13 15:37:00,SystemResetWarning,0836.2,5.00,000.00,023.8,023.1,000.0,032.0,025.3,10.1,0000.0,0010.68,0004.29,0003.53
2023-11-13 15:38:00,SystemResetWarning,0836.2,5.00,000.00,023.8,023.1,000.0,032.0,025.3,10.2,0000.0,0010.53,0004.24,0003.52
2023-11-13 15:39:00,SystemResetWarning,0836.2,5.00,000.00,023.8,023.1,000.0,032.0,025.4,10.3,0000.0,0009.69,0004.19,0003.51
2023-11-13 15:40:00,SystemResetWarning,0836.2,5.01,000.00,023.9,023.2,000.0,032.0,025.4,10.3,0000.0,0009.51,0004.17,0003.50
2023-11-13 15:41:00,SystemResetWarning,0836.2,5.00,000.00,023.9,023.2,000.0,032.0,025.4,10.4,0000.0,0009.52,0004.19,0003.51
2023-11-13 15:42:00,SystemResetWarning,0836.2,5.00,000.00,023.9,023.2,000.0,032.1,025.4,10.2,0000.0,0009.46,0004.21,0003.51
2023-11-13 15:43:00,SystemResetWarning,0836.2,5.00,000.00,023.9,023.2,000.0,032.1,025.4,10.2,0000.0,0009.59,0004.23,0003.52
2023-11-13 15:44:00,SystemResetWarning,0836.2,5.00,000.00,023.9,023.2,000.0,032.1,025.4,10.2,0000.0,0010.00,0004.29,0003.52
2023-11-13 15:45:00,SystemResetWarning,0836.2,5.00,000.00,023.9,023.2,000.0,032.1,025.5,10.1,0000.0,0010.00,0004.31,0003.52
2023-11-13 15:46:00,SystemResetWarning,0836.2,5.00,000.00,023.9,023.2,000.0,032.1,025.5,10.0,0000.0,0009.86,0004.31,0003.52
2023-11-13 15:47:00,SystemResetWarning,0836.1,5.00,000.00,024.0,023.2,000.0,032.1,025.5,10.1,0000.0,0009.37,0004.28,0003.53
2023-11-13 15:48:00,SystemResetWarning,0836.1,5.00,000.00,024.0,023.3,000.0,032.1,025.5,10.0,0000.0,0009.20,0004.30,0003.53
2023-11-13 15:49:00,SystemResetWarning,0836.1,5.00,000.00,024.0,023.3,000.0,032.2,025.5,10.0,0000.0,0009.26,0004.32,0003.53
2023-11-13 15:50:00,SystemResetWarning,0836.1,5.00,000.00,024.0,023.3,000.0,032.2,025.5,10.1,0000.0,0009.85,0004.36,0003.54
2023-11-13 15:51:00,SystemResetWarning,0836.1,4.99,000.00,024.0,023.3,000.0,032.2,025.5,10.4,0000.0,0010.41,0004.39,0003.55
2023-11-13 15:52:00,SystemResetWarning,0836.1,5.00,000.00,024.0,023.3,000.0,032.2,025.5,10.3,0000.0,0010.29,0004.36,0003.55
2023-11-13 15:53:00,SystemResetWarning,0836.1,5.00,000.00,024.0,023.3,000.0,032.2,025.5,10.5,0000.0,0010.42,0004.38,0003.56
2023-11-13 15:54:00,SystemResetWarning,0836.1,5.00,000.00,024.1,023.4,000.0,032.2,025.6,10.5,0000.0,0010.33,0004.40,0003.57
2023-11-13 15:55:00,SystemResetWarning,0836.1,5.00,000.00,024.1,023.4,000.0,032.2,025.6,10.4,0000.0,0010.30,0004.40,0003.58
2023-11-13 15:56:00,SystemResetWarning,0836.1,5.00,000.00,024.1,023.4,000.0,032.3,025.6,10.6,0000.0,0010.77,0004.38,0003.61
2023-11-13 15:57:00,SystemResetWarning,0836.1,5.00,000.00,024.1,023.4,000.0,032.3,025.6,10.5,0000.0,0011.10,0004.41,0003.62
2023-11-13 15:58:00,SystemResetWarning,0836.1,5.00,000.00,024.1,023.4,000.0,032.3,025.6,10.5,0000.0,0011.56,0004.40,0003.62
2023-11-13 15:59:00,SystemResetWarning,0836.1,5.00,000.00,024.1,023.5,000.0,032.3,025.7,10.5,0000.0,0011.57,0004.39,0003.63
